CSN3385 ZGGG-ZLLL

Flight info

Callsign CSN3385
Flight time 2h 57m
Altitude 34100
Route AGVIL W24 OSNOV G586 QP B330 ELKAL W179 OMBON W195 ORUNA
Aircraft B77W/H-SDE1E2E3FGHIJ2J3J4J5M1RWXY/LB1D1

Departure

Time 2026-04-15 06:07
Airport Guangzhou Baiyun International Airport (ZGGG)

Arrival

Time 2026-04-15 09:05
Airport Lanzhou Zhongchuan International Airport (ZLLL)
Time Latitude Longitude Altitude Speed Heading
2026-04-15 05:39 23.40066 113.30699 63 ft 0 kts 334°
2026-04-15 05:57 23.40051 113.30707 64 ft 2 kts 334°
2026-04-15 05:57 23.40037 113.30715 64 ft 2 kts 334°
2026-04-15 05:57 23.40022 113.30721 64 ft 2 kts 346°
2026-04-15 05:57 23.40006 113.30724 64 ft 2 kts
2026-04-15 05:58 23.39990 113.30721 64 ft 2 kts 20°
2026-04-15 05:58 23.39975 113.30713 64 ft 2 kts 38°
2026-04-15 05:58 23.39966 113.30703 64 ft 1 kts 52°
2026-04-15 05:58 23.39964 113.30701 64 ft 0 kts 52°
2026-04-15 06:01 23.39972 113.30711 64 ft 7 kts 52°
2026-04-15 06:01 23.40010 113.30778 64 ft 15 kts 49°
2026-04-15 06:01 23.40066 113.30810 64 ft 11 kts 15°
2026-04-15 06:01 23.40175 113.30841 64 ft 13 kts 14°
2026-04-15 06:02 23.40274 113.30866 64 ft 16 kts 13°
2026-04-15 06:02 23.40392 113.30897 64 ft 16 kts
2026-04-15 06:02 23.40457 113.30842 64 ft 13 kts 290°
2026-04-15 06:02 23.40479 113.30759 64 ft 11 kts 283°
2026-04-15 06:03 23.40492 113.30698 64 ft 13 kts 283°
2026-04-15 06:03 23.40516 113.30587 64 ft 17 kts 283°
2026-04-15 06:03 23.40558 113.30403 64 ft 24 kts 285°
2026-04-15 06:03 23.40591 113.30271 63 ft 27 kts 284°
2026-04-15 06:04 23.40635 113.30073 63 ft 29 kts 282°
2026-04-15 06:04 23.40682 113.29870 64 ft 25 kts 284°
2026-04-15 06:04 23.40718 113.29712 64 ft 21 kts 283°
2026-04-15 06:04 23.40751 113.29569 64 ft 17 kts 284°
2026-04-15 06:05 23.40778 113.29446 64 ft 17 kts 283°
2026-04-15 06:05 23.40802 113.29343 64 ft 2 kts 285°
2026-04-15 06:05 23.40805 113.29332 64 ft 1 kts 285°
2026-04-15 06:05 23.40807 113.29322 64 ft 1 kts 285°
2026-04-15 06:06 23.40815 113.29293 64 ft 12 kts 285°
2026-04-15 06:06 23.40816 113.29214 64 ft 9 kts 234°
2026-04-15 06:06 23.40749 113.29179 64 ft 0 kts 194°
2026-04-15 06:06 23.40748 113.29179 64 ft 0 kts 194°
2026-04-15 06:07 23.40745 113.29178 64 ft 6 kts 194°
2026-04-15 06:07 23.40358 113.29071 64 ft 112 kts 193°
2026-04-15 06:07 23.39292 113.28784 207 ft 194 kts 193°
2026-04-15 06:07 23.37842 113.28400 954 ft 222 kts 194°
2026-04-15 06:08 23.36381 113.27821 1723 ft 226 kts 205°
2026-04-15 06:08 23.35097 113.26810 2405 ft 240 kts 220°
2026-04-15 06:08 23.33941 113.25466 3221 ft 253 kts 226°
2026-04-15 06:08 23.32717 113.24046 4225 ft 260 kts 224°
2026-04-15 06:09 23.31216 113.22907 5219 ft 265 kts 207°
2026-04-15 06:09 23.29487 113.22233 6397 ft 265 kts 198°
2026-04-15 06:09 23.27694 113.21682 7401 ft 270 kts 196°
2026-04-15 06:09 23.25852 113.21222 8406 ft 274 kts 194°
2026-04-15 06:10 23.23966 113.20815 9346 ft 279 kts 193°
2026-04-15 06:10 23.22033 113.20402 10182 ft 288 kts 194°
2026-04-15 06:10 23.20277 113.20022 10768 ft 300 kts 194°
2026-04-15 06:10 23.18163 113.19553 11310 ft 318 kts 196°
2026-04-15 06:11 23.16091 113.18612 11749 ft 331 kts 216°
2026-04-15 06:11 23.14434 113.16835 12236 ft 342 kts 237°
2026-04-15 06:11 23.13481 113.14456 12892 ft 350 kts 257°
2026-04-15 06:11 23.13366 113.11822 13582 ft 359 kts 276°
2026-04-15 06:12 23.14127 113.09249 14417 ft 366 kts 295°
2026-04-15 06:12 23.15665 113.07057 15159 ft 378 kts 313°
2026-04-15 06:12 23.17882 113.05455 15874 ft 391 kts 332°
2026-04-15 06:12 23.20526 113.04689 16614 ft 404 kts 350°
2026-04-15 06:13 23.23373 113.04854 17332 ft 417 kts
2026-04-15 06:13 23.26124 113.05972 17999 ft 430 kts 25°
2026-04-15 06:13 23.28600 113.07829 18666 ft 435 kts 34°
2026-04-15 06:13 23.31185 113.09531 19218 ft 435 kts 20°
2026-04-15 06:14 23.34088 113.10364 19824 ft 432 kts
2026-04-15 06:14 23.37064 113.10228 20464 ft 426 kts 345°
2026-04-15 06:14 23.39827 113.09158 21075 ft 420 kts 329°
2026-04-15 06:14 23.42365 113.07587 21582 ft 424 kts 328°
2026-04-15 06:15 23.45203 113.06526 22038 ft 439 kts 345°
2026-04-15 06:15 23.48280 113.06423 22677 ft 449 kts
2026-04-15 06:15 23.51362 113.07157 23233 ft 456 kts 12°
2026-04-15 06:15 23.54454 113.07926 23702 ft 457 kts
2026-04-15 06:16 23.57578 113.08188 24188 ft 456 kts 356°
2026-04-15 06:16 23.60752 113.08068 24695 ft 457 kts 352°
2026-04-15 06:16 23.63944 113.07895 25192 ft 461 kts 353°
2026-04-15 06:16 23.67133 113.07610 25671 ft 460 kts 347°
2026-04-15 06:17 23.70258 113.06887 26144 ft 458 kts 340°
2026-04-15 06:17 23.73318 113.05848 26566 ft 461 kts 337°
2026-04-15 06:17 23.76345 113.04690 26990 ft 462 kts 334°
2026-04-15 06:17 23.79328 113.03368 27494 ft 463 kts 332°
2026-04-15 06:18 23.82273 113.01932 27972 ft 464 kts 330°
2026-04-15 06:18 23.85205 113.00447 28425 ft 466 kts 330°
2026-04-15 06:18 23.88170 112.98965 28861 ft 469 kts 330°
2026-04-15 06:18 23.91161 112.97486 29264 ft 473 kts 330°
2026-04-15 06:19 23.94161 112.96003 29739 ft 473 kts 330°
2026-04-15 06:19 23.97151 112.94525 30370 ft 470 kts 329°
2026-04-15 06:19 24.00132 112.93049 30942 ft 469 kts 329°
2026-04-15 06:19 24.03100 112.91580 31479 ft 468 kts 329°
2026-04-15 06:20 24.06077 112.90106 31958 ft 469 kts 329°
2026-04-15 06:20 24.09010 112.88653 32439 ft 468 kts 329°
2026-04-15 06:20 24.11973 112.87185 32905 ft 468 kts 329°
2026-04-15 06:20 24.14946 112.85733 33347 ft 469 kts 330°
2026-04-15 06:21 24.18022 112.84462 33765 ft 473 kts 334°
2026-04-15 06:21 24.21174 112.83377 33959 ft 475 kts 337°
2026-04-15 06:21 24.24362 112.82401 33960 ft 476 kts 338°
2026-04-15 06:22 24.30732 112.80408 33958 ft 476 kts 336°
2026-04-15 06:22 24.37054 112.78301 33960 ft 475 kts 336°
2026-04-15 06:23 24.43388 112.76169 33957 ft 472 kts 334°
2026-04-15 06:23 24.46288 112.74605 33962 ft 457 kts 319°
2026-04-15 06:23 24.48587 112.72301 33964 ft 442 kts 303°
2026-04-15 06:23 24.50140 112.69433 33964 ft 436 kts 287°
2026-04-15 06:24 24.50875 112.66217 33961 ft 435 kts 275°
2026-04-15 06:24 24.51369 112.59524 33965 ft 444 kts 271°
2026-04-15 06:25 24.51692 112.52769 33968 ft 446 kts 269°
2026-04-15 06:25 24.51863 112.45973 33968 ft 445 kts 271°
2026-04-15 06:26 24.52375 112.39194 33969 ft 445 kts 273°
2026-04-15 06:26 24.53045 112.32434 33971 ft 446 kts 274°
2026-04-15 06:27 24.53715 112.25654 33972 ft 447 kts 274°
2026-04-15 06:27 24.54381 112.18857 33973 ft 447 kts 273°
2026-04-15 06:28 24.55020 112.12061 33975 ft 447 kts 273°
2026-04-15 06:28 24.55651 112.05265 33976 ft 447 kts 273°
2026-04-15 06:29 24.56282 111.98467 33977 ft 447 kts 273°
2026-04-15 06:29 24.56911 111.91677 33979 ft 448 kts 273°
2026-04-15 06:30 24.57541 111.84868 33980 ft 448 kts 273°
2026-04-15 06:30 24.58165 111.78068 33981 ft 447 kts 273°
2026-04-15 06:31 24.58784 111.71279 33983 ft 446 kts 273°
2026-04-15 06:31 24.59407 111.64487 33984 ft 446 kts 273°
2026-04-15 06:32 24.60060 111.57702 33985 ft 446 kts 273°
2026-04-15 06:32 24.60671 111.50962 33986 ft 446 kts 273°
2026-04-15 06:33 24.61277 111.44173 33988 ft 446 kts 272°
2026-04-15 06:33 24.61881 111.37382 33989 ft 446 kts 272°
2026-04-15 06:34 24.62484 111.30602 33990 ft 446 kts 272°
2026-04-15 06:34 24.63079 111.23828 33991 ft 446 kts 272°
2026-04-15 06:35 24.63669 111.17039 33992 ft 446 kts 272°
2026-04-15 06:35 24.64271 111.10267 33993 ft 445 kts 273°
2026-04-15 06:36 24.64877 111.03493 33994 ft 445 kts 272°
2026-04-15 06:36 24.65452 110.96783 33995 ft 431 kts 272°
2026-04-15 06:37 24.66003 110.90287 33995 ft 424 kts 272°
2026-04-15 06:37 24.66546 110.83872 33997 ft 421 kts 272°
2026-04-15 06:38 24.67598 110.77549 33996 ft 426 kts 287°
2026-04-15 06:38 24.69065 110.74694 33993 ft 435 kts 301°
2026-04-15 06:38 24.71169 110.72251 33986 ft 443 kts 310°
2026-04-15 06:39 24.75810 110.67737 33970 ft 452 kts 313°
2026-04-15 06:39 24.80624 110.63271 33972 ft 451 kts 311°
2026-04-15 06:40 24.85180 110.58567 33973 ft 448 kts 309°
2026-04-15 06:40 24.89662 110.53811 33974 ft 447 kts 309°
2026-04-15 06:41 24.94151 110.49058 33974 ft 447 kts 309°
2026-04-15 06:41 24.98632 110.44315 33974 ft 447 kts 309°
2026-04-15 06:42 25.03118 110.39574 33975 ft 446 kts 309°
2026-04-15 06:42 25.07605 110.34851 33975 ft 445 kts 309°
2026-04-15 06:43 25.12077 110.30118 33975 ft 444 kts 309°
2026-04-15 06:43 25.16510 110.25419 33975 ft 444 kts 309°
2026-04-15 06:44 25.20990 110.20670 33975 ft 444 kts 309°
2026-04-15 06:44 25.25426 110.16000 33976 ft 443 kts 309°
2026-04-15 06:45 25.29881 110.11304 33976 ft 442 kts 309°
2026-04-15 06:45 25.34321 110.06615 33976 ft 441 kts 309°
2026-04-15 06:46 25.38760 110.01921 33975 ft 441 kts 309°
2026-04-15 06:46 25.43185 109.97236 33975 ft 440 kts 308°
2026-04-15 06:47 25.47618 109.92559 33976 ft 440 kts 309°
2026-04-15 06:47 25.52050 109.87883 33975 ft 439 kts 308°
2026-04-15 06:48 25.56459 109.83228 33975 ft 438 kts 308°
2026-04-15 06:48 25.60869 109.78555 33974 ft 438 kts 308°
2026-04-15 06:49 25.65265 109.73877 33974 ft 438 kts 308°
2026-04-15 06:49 25.69654 109.69199 33974 ft 438 kts 308°
2026-04-15 06:50 25.75468 109.62948 33968 ft 433 kts 305°
2026-04-15 06:50 25.78672 109.57434 33976 ft 422 kts 287°
2026-04-15 06:51 25.80350 109.51276 33973 ft 414 kts 279°
2026-04-15 06:51 25.81759 109.45108 33972 ft 412 kts 281°
2026-04-15 06:52 25.83316 109.39019 33972 ft 413 kts 282°
2026-04-15 06:52 25.84976 109.32908 33972 ft 414 kts 282°
2026-04-15 06:53 25.86611 109.26775 33971 ft 414 kts 282°
2026-04-15 06:53 25.88232 109.20641 33971 ft 414 kts 282°
2026-04-15 06:54 25.89849 109.14509 33971 ft 414 kts 282°
2026-04-15 06:54 25.91466 109.08375 33971 ft 414 kts 282°
2026-04-15 06:55 25.93078 109.02280 33970 ft 414 kts 282°
2026-04-15 06:55 25.94737 108.96119 33970 ft 414 kts 282°
2026-04-15 06:56 25.96352 108.90029 33969 ft 413 kts 282°
2026-04-15 06:56 25.97968 108.83912 33970 ft 413 kts 282°
2026-04-15 06:57 25.99584 108.77786 33969 ft 412 kts 281°
2026-04-15 06:57 26.01193 108.71687 33969 ft 410 kts 281°
2026-04-15 06:58 26.02825 108.65636 33969 ft 408 kts 281°
2026-04-15 06:58 26.04429 108.59595 33969 ft 408 kts 281°
2026-04-15 06:59 26.06028 108.53541 33969 ft 408 kts 281°
2026-04-15 06:59 26.07625 108.47480 33969 ft 408 kts 281°
2026-04-15 07:00 26.09214 108.41470 33968 ft 407 kts 282°
2026-04-15 07:00 26.11280 108.35573 33970 ft 411 kts 288°
2026-04-15 07:01 26.13799 108.29828 33974 ft 414 kts 290°
2026-04-15 07:01 26.16379 108.24088 33974 ft 415 kts 290°
2026-04-15 07:02 26.18903 108.18308 33975 ft 415 kts 289°
2026-04-15 07:02 26.21405 108.12517 33975 ft 415 kts 289°
2026-04-15 07:03 26.23900 108.06718 33975 ft 415 kts 289°
2026-04-15 07:03 26.26411 108.00929 33974 ft 415 kts 289°
2026-04-15 07:04 26.28914 107.95137 33975 ft 414 kts 289°
2026-04-15 07:04 26.31399 107.89353 33975 ft 414 kts 289°
2026-04-15 07:05 26.33870 107.83600 33975 ft 414 kts 289°
2026-04-15 07:05 26.36347 107.77859 33975 ft 414 kts 289°
2026-04-15 07:06 26.38821 107.72064 33983 ft 413 kts 289°
2026-04-15 07:06 26.41289 107.66262 33984 ft 413 kts 289°
2026-04-15 07:07 26.43750 107.60471 33983 ft 412 kts 289°
2026-04-15 07:07 26.46207 107.54689 33983 ft 412 kts 289°
2026-04-15 07:08 26.48662 107.48914 33982 ft 412 kts 288°
2026-04-15 07:08 26.51118 107.43119 33929 ft 412 kts 288°
2026-04-15 07:09 26.53563 107.37335 33923 ft 411 kts 288°
2026-04-15 07:09 26.56012 107.31558 33922 ft 411 kts 288°
2026-04-15 07:10 26.58457 107.25791 33918 ft 410 kts 288°
2026-04-15 07:10 26.60880 107.20046 33918 ft 411 kts 288°
2026-04-15 07:11 26.63320 107.14259 33918 ft 411 kts 288°
2026-04-15 07:11 26.65801 107.08514 33917 ft 410 kts 288°
2026-04-15 07:12 26.68287 107.02755 33917 ft 410 kts 288°
2026-04-15 07:12 26.70738 106.96996 33917 ft 410 kts 288°
2026-04-15 07:13 26.73158 106.91220 33917 ft 409 kts 288°
2026-04-15 07:13 26.75549 106.85499 33917 ft 409 kts 288°
2026-04-15 07:14 26.78045 106.79774 33917 ft 412 kts 292°
2026-04-15 07:14 26.81710 106.74735 33919 ft 427 kts 307°
2026-04-15 07:15 26.86286 106.70347 33919 ft 436 kts 310°
2026-04-15 07:15 26.90946 106.65973 33919 ft 436 kts 309°
2026-04-15 07:16 26.95515 106.61522 33919 ft 435 kts 309°
2026-04-15 07:16 27.00054 106.57108 33920 ft 434 kts 309°
2026-04-15 07:17 27.04596 106.52648 33921 ft 434 kts 309°
2026-04-15 07:17 27.09122 106.48188 33922 ft 433 kts 308°
2026-04-15 07:18 27.13644 106.43726 33922 ft 432 kts 308°
2026-04-15 07:18 27.18149 106.39282 33923 ft 431 kts 308°
2026-04-15 07:19 27.22645 106.34841 33924 ft 430 kts 308°
2026-04-15 07:19 27.27145 106.30393 33925 ft 430 kts 308°
2026-04-15 07:20 27.31647 106.25969 33926 ft 430 kts 308°
2026-04-15 07:20 27.36132 106.21528 33927 ft 428 kts 308°
2026-04-15 07:21 27.40591 106.17100 33928 ft 427 kts 308°
2026-04-15 07:21 27.45042 106.12675 33929 ft 427 kts 308°
2026-04-15 07:22 27.49494 106.08249 33930 ft 427 kts 308°
2026-04-15 07:22 27.53957 106.03853 33931 ft 427 kts 309°
2026-04-15 07:23 27.58476 105.99572 33932 ft 427 kts 309°
2026-04-15 07:23 27.63001 105.95234 33933 ft 426 kts 309°
2026-04-15 07:24 27.67504 105.90900 33933 ft 425 kts 309°
2026-04-15 07:24 27.71878 105.86467 33934 ft 415 kts 302°
2026-04-15 07:25 27.74721 105.81013 33936 ft 398 kts 283°
2026-04-15 07:25 27.76241 105.75082 33935 ft 389 kts 279°
2026-04-15 07:26 27.77671 105.69205 33935 ft 388 kts 280°
2026-04-15 07:26 27.79309 105.63371 33936 ft 390 kts 281°
2026-04-15 07:27 27.81186 105.57631 33937 ft 394 kts 286°
2026-04-15 07:27 27.83493 105.51987 33938 ft 397 kts 287°
2026-04-15 07:28 27.85733 105.46285 33938 ft 396 kts 286°
2026-04-15 07:28 27.87933 105.40571 33939 ft 397 kts 286°
2026-04-15 07:29 27.90256 105.34907 33940 ft 399 kts 289°
2026-04-15 07:29 27.92835 105.29339 33940 ft 400 kts 289°
2026-04-15 07:30 27.95350 105.23715 33941 ft 401 kts 289°
2026-04-15 07:30 27.98043 105.18177 33944 ft 407 kts 297°
2026-04-15 07:31 28.02317 105.13743 33942 ft 434 kts 316°
2026-04-15 07:31 28.07623 105.10342 33940 ft 441 kts 321°
2026-04-15 07:32 28.12965 105.06866 33941 ft 444 kts 319°
2026-04-15 07:32 28.18218 105.03221 33940 ft 442 kts 318°
2026-04-15 07:33 28.23432 104.99557 33940 ft 441 kts 318°
2026-04-15 07:33 28.28624 104.95909 33939 ft 441 kts 318°
2026-04-15 07:34 28.33847 104.92239 33939 ft 442 kts 318°
2026-04-15 07:34 28.39071 104.88565 33938 ft 442 kts 318°
2026-04-15 07:35 28.44296 104.84887 33939 ft 442 kts 318°
2026-04-15 07:35 28.49538 104.81189 33937 ft 442 kts 318°
2026-04-15 07:36 28.54766 104.77496 33936 ft 442 kts 319°
2026-04-15 07:36 28.60007 104.73811 33936 ft 443 kts 319°
2026-04-15 07:37 28.64358 104.70747 33935 ft 443 kts 319°
2026-04-15 07:37 28.70439 104.66438 33935 ft 443 kts 319°
2026-04-15 07:38 28.75686 104.62712 33934 ft 445 kts 319°
2026-04-15 07:38 28.80085 104.59586 33934 ft 445 kts 319°
2026-04-15 07:39 28.85304 104.55875 33933 ft 445 kts 319°
2026-04-15 07:39 28.90573 104.52155 33932 ft 446 kts 319°
2026-04-15 07:40 28.95846 104.48427 33931 ft 446 kts 319°
2026-04-15 07:40 29.01146 104.44683 33931 ft 448 kts 320°
2026-04-15 07:41 29.06465 104.40935 33920 ft 448 kts 320°
2026-04-15 07:41 29.11769 104.37171 33919 ft 449 kts 320°
2026-04-15 07:42 29.17048 104.33414 33918 ft 450 kts 320°
2026-04-15 07:42 29.22370 104.29625 33917 ft 451 kts 320°
2026-04-15 07:43 29.28093 104.26569 33916 ft 465 kts 339°
2026-04-15 07:43 29.31349 104.26154 33922 ft 480 kts 353°
2026-04-15 07:43 29.34697 104.26599 33931 ft 489 kts
2026-04-15 07:44 29.41396 104.28317 33913 ft 495 kts
2026-04-15 07:44 29.48192 104.29778 33913 ft 497 kts
2026-04-15 07:45 29.55012 104.30947 33913 ft 494 kts
2026-04-15 07:45 29.61807 104.32082 33913 ft 493 kts
2026-04-15 07:46 29.68606 104.33230 33912 ft 493 kts
2026-04-15 07:46 29.75390 104.34386 33912 ft 493 kts
2026-04-15 07:47 29.82161 104.35543 33912 ft 493 kts
2026-04-15 07:47 29.88948 104.36701 33912 ft 493 kts
2026-04-15 07:48 29.95741 104.37867 33913 ft 493 kts
2026-04-15 07:48 30.02477 104.39026 33913 ft 492 kts
2026-04-15 07:49 30.09249 104.40192 33914 ft 492 kts
2026-04-15 07:49 30.16012 104.41357 33915 ft 491 kts
2026-04-15 07:50 30.22764 104.42521 33916 ft 491 kts
2026-04-15 07:50 30.29517 104.43686 33917 ft 491 kts
2026-04-15 07:51 30.36285 104.44850 33916 ft 490 kts
2026-04-15 07:51 30.43028 104.46018 33915 ft 490 kts
2026-04-15 07:52 30.49761 104.47188 33912 ft 489 kts
2026-04-15 07:52 30.56483 104.48349 33906 ft 487 kts
2026-04-15 07:53 30.63177 104.48294 33899 ft 477 kts 344°
2026-04-15 07:53 30.69429 104.46103 33915 ft 470 kts 334°
2026-04-15 07:54 30.75571 104.43479 33904 ft 465 kts 335°
2026-04-15 07:54 30.81716 104.41199 33897 ft 463 kts 336°
2026-04-15 07:55 30.87928 104.39339 33901 ft 468 kts 346°
2026-04-15 07:56 30.97762 104.38707 33897 ft 476 kts 353°
2026-04-15 07:56 31.04401 104.38554 33897 ft 476 kts 353°
2026-04-15 07:57 31.11014 104.38334 33897 ft 474 kts 352°
2026-04-15 07:57 31.14882 104.38202 33897 ft 474 kts 352°
2026-04-15 07:58 31.21469 104.37977 33898 ft 473 kts 352°
2026-04-15 07:58 31.28046 104.37725 33898 ft 472 kts 352°
2026-04-15 07:59 31.34591 104.37337 33898 ft 471 kts 351°
2026-04-15 07:59 31.41133 104.36961 33899 ft 470 kts 351°
2026-04-15 08:00 31.47660 104.36597 33900 ft 470 kts 351°
2026-04-15 08:00 31.54185 104.36234 33901 ft 469 kts 351°
2026-04-15 08:01 31.60699 104.35870 33901 ft 468 kts 351°
2026-04-15 08:01 31.67214 104.35506 33902 ft 468 kts 351°
2026-04-15 08:02 31.73677 104.35144 33902 ft 467 kts 351°
2026-04-15 08:02 31.80178 104.34791 33903 ft 467 kts 352°
2026-04-15 08:03 31.86682 104.34462 33904 ft 467 kts 352°
2026-04-15 08:03 31.93183 104.34131 33905 ft 467 kts 352°
2026-04-15 08:04 31.99678 104.33797 33906 ft 467 kts 352°
2026-04-15 08:04 32.06182 104.33463 33906 ft 467 kts 352°
2026-04-15 08:05 32.12682 104.33132 33907 ft 467 kts 352°
2026-04-15 08:05 32.19170 104.32799 33909 ft 467 kts 351°
2026-04-15 08:06 32.25667 104.32463 33910 ft 467 kts 351°
2026-04-15 08:06 32.32162 104.32127 33910 ft 467 kts 351°
2026-04-15 08:07 32.38669 104.31791 33912 ft 468 kts 351°
2026-04-15 08:07 32.45175 104.31468 33913 ft 468 kts 351°
2026-04-15 08:08 32.51642 104.31159 33914 ft 469 kts 351°
2026-04-15 08:08 32.58175 104.30845 33907 ft 469 kts 351°
2026-04-15 08:09 32.64702 104.30531 33907 ft 470 kts 351°
2026-04-15 08:09 32.71241 104.30215 33909 ft 470 kts 351°
2026-04-15 08:10 32.77794 104.29898 33911 ft 471 kts 351°
2026-04-15 08:10 32.84307 104.29582 33912 ft 471 kts 351°
2026-04-15 08:11 32.90878 104.29264 33914 ft 472 kts 350°
2026-04-15 08:11 32.97453 104.28945 33916 ft 473 kts 350°
2026-04-15 08:12 33.04049 104.28624 33918 ft 474 kts 350°
2026-04-15 08:12 33.10644 104.28305 33920 ft 475 kts 350°
2026-04-15 08:13 33.17258 104.27983 33922 ft 475 kts 349°
2026-04-15 08:13 33.23877 104.27660 33925 ft 476 kts 349°
2026-04-15 08:14 33.30468 104.27337 33927 ft 477 kts 349°
2026-04-15 08:14 33.36931 104.26164 33927 ft 464 kts 334°
2026-04-15 08:15 33.42622 104.22812 33932 ft 452 kts 320°
2026-04-15 08:15 33.47904 104.18835 33934 ft 446 kts 319°
2026-04-15 08:16 33.53248 104.15118 33935 ft 444 kts 321°
2026-04-15 08:16 33.58820 104.11794 33939 ft 455 kts 331°
2026-04-15 08:17 33.65186 104.10545 33946 ft 474 kts 350°
2026-04-15 08:17 33.71734 104.10809 33945 ft 473 kts 353°
2026-04-15 08:18 33.78332 104.11082 33948 ft 474 kts 352°
2026-04-15 08:18 33.84914 104.11166 33950 ft 473 kts 351°
2026-04-15 08:19 33.91524 104.11182 33953 ft 473 kts 351°
2026-04-15 08:19 33.98108 104.11187 33956 ft 472 kts 351°
2026-04-15 08:20 34.04640 104.11189 33959 ft 472 kts 351°
2026-04-15 08:20 34.11222 104.11190 33963 ft 472 kts 351°
2026-04-15 08:21 34.17810 104.11190 33966 ft 472 kts 351°
2026-04-15 08:21 34.24382 104.11190 33970 ft 472 kts 351°
2026-04-15 08:22 34.30951 104.11190 33973 ft 472 kts 351°
2026-04-15 08:22 34.37515 104.11190 33977 ft 472 kts 351°
2026-04-15 08:23 34.44084 104.11190 33980 ft 471 kts 351°
2026-04-15 08:23 34.50641 104.11190 33984 ft 471 kts 351°
2026-04-15 08:24 34.57165 104.11190 34005 ft 470 kts 351°
2026-04-15 08:24 34.63695 104.11190 34011 ft 469 kts 351°
2026-04-15 08:25 34.70232 104.11190 34015 ft 469 kts 351°
2026-04-15 08:25 34.75649 104.11190 34018 ft 468 kts 351°
2026-04-15 08:25 34.78919 104.11190 33690 ft 472 kts 352°
2026-04-15 08:26 34.82212 104.11190 33092 ft 472 kts 352°
2026-04-15 08:26 34.85474 104.11190 32808 ft 465 kts 352°
2026-04-15 08:26 34.88678 104.11190 32602 ft 456 kts 352°
2026-04-15 08:26 34.91833 104.11190 32310 ft 450 kts 352°
2026-04-15 08:27 34.95975 104.11190 31601 ft 450 kts 352°
2026-04-15 08:27 34.98098 104.11190 31180 ft 451 kts 352°
2026-04-15 08:27 35.01207 104.11190 30562 ft 453 kts 352°
2026-04-15 08:27 35.04362 104.11190 29938 ft 454 kts 352°
2026-04-15 08:28 35.07517 104.11190 29434 ft 451 kts 353°
2026-04-15 08:28 35.10687 104.11190 28959 ft 448 kts 353°
2026-04-15 08:28 35.13755 104.11190 28498 ft 444 kts 354°
2026-04-15 08:28 35.16744 104.11190 28042 ft 441 kts 354°
2026-04-15 08:29 35.19801 104.11190 27575 ft 438 kts 354°
2026-04-15 08:29 35.22845 104.11190 27111 ft 435 kts 355°
2026-04-15 08:29 35.25854 104.11190 26654 ft 432 kts 355°
2026-04-15 08:29 35.28852 104.11190 26197 ft 428 kts 355°
2026-04-15 08:30 35.31822 104.11190 25744 ft 426 kts 356°
2026-04-15 08:30 35.34780 104.11190 25289 ft 423 kts 356°
2026-04-15 08:30 35.37712 104.11190 24836 ft 420 kts 356°
2026-04-15 08:30 35.40630 104.11190 24383 ft 417 kts 357°
2026-04-15 08:31 35.43533 104.11190 23931 ft 415 kts 357°
2026-04-15 08:31 35.46408 104.11190 23480 ft 412 kts 357°
2026-04-15 08:31 35.49236 104.11190 23036 ft 410 kts 358°
2026-04-15 08:31 35.52077 104.11195 22588 ft 407 kts 358°
2026-04-15 08:32 35.54907 104.11209 22136 ft 405 kts 358°
2026-04-15 08:32 35.57715 104.11222 21687 ft 403 kts 358°
2026-04-15 08:32 35.60512 104.11235 21237 ft 401 kts 359°
2026-04-15 08:32 35.63299 104.11247 20782 ft 399 kts 359°
2026-04-15 08:33 35.66066 104.11260 20327 ft 397 kts 359°
2026-04-15 08:33 35.68812 104.11272 19875 ft 394 kts 359°
2026-04-15 08:33 35.71560 104.11284 19416 ft 392 kts 359°
2026-04-15 08:33 35.74284 104.11296 18956 ft 391 kts 360°
2026-04-15 08:34 35.77002 104.11308 18493 ft 389 kts 360°
2026-04-15 08:34 35.79691 104.11204 18023 ft 384 kts 353°
2026-04-15 08:34 35.82229 104.10277 17568 ft 380 kts 333°
2026-04-15 08:34 35.84397 104.08459 17086 ft 377 kts 319°
2026-04-15 08:35 35.86248 104.06173 16550 ft 376 kts 310°
2026-04-15 08:35 35.87874 104.03705 16110 ft 374 kts 306°
2026-04-15 08:35 35.89409 104.01138 15664 ft 371 kts 305°
2026-04-15 08:35 35.90971 103.98604 15229 ft 369 kts 307°
2026-04-15 08:36 35.92546 103.96117 14797 ft 367 kts 307°
2026-04-15 08:36 35.94116 103.93648 14368 ft 364 kts 307°
2026-04-15 08:36 35.95672 103.91187 13945 ft 362 kts 307°
2026-04-15 08:36 35.97185 103.88722 13531 ft 358 kts 304°
2026-04-15 08:37 35.98399 103.86072 13143 ft 353 kts 295°
2026-04-15 08:37 35.99440 103.83340 12780 ft 348 kts 294°
2026-04-15 08:37 36.00297 103.80606 12356 ft 346 kts 287°
2026-04-15 08:37 36.00889 103.77728 11916 ft 345 kts 281°
2026-04-15 08:38 36.01390 103.74801 11488 ft 342 kts 283°
2026-04-15 08:38 36.02299 103.72184 11331 ft 331 kts 301°
2026-04-15 08:38 36.03758 103.70070 11338 ft 317 kts 317°
2026-04-15 08:38 36.05515 103.68520 11274 ft 305 kts 329°
2026-04-15 08:39 36.07419 103.67459 11151 ft 296 kts 341°
2026-04-15 08:39 36.09401 103.66959 11033 ft 286 kts 354°
2026-04-15 08:39 36.11356 103.66859 10892 ft 278 kts
2026-04-15 08:39 36.13294 103.66849 10499 ft 282 kts
2026-04-15 08:40 36.15238 103.66794 9999 ft 273 kts 359°
2026-04-15 08:40 36.17075 103.66711 9791 ft 258 kts 358°
2026-04-15 08:40 36.18864 103.66616 9536 ft 260 kts 358°
2026-04-15 08:40 36.20685 103.66510 9271 ft 263 kts 358°
2026-04-15 08:41 36.22538 103.66398 9018 ft 268 kts 358°
2026-04-15 08:41 36.24359 103.66285 8971 ft 263 kts 357°
2026-04-15 08:41 36.26185 103.66172 8944 ft 261 kts 357°
2026-04-15 08:41 36.27995 103.66058 8942 ft 259 kts 357°
2026-04-15 08:42 36.29789 103.65945 8946 ft 257 kts 357°
2026-04-15 08:42 36.31574 103.65833 8950 ft 258 kts 357°
2026-04-15 08:42 36.33382 103.65719 8949 ft 260 kts 357°
2026-04-15 08:42 36.35188 103.65605 8959 ft 259 kts 357°
2026-04-15 08:43 36.36998 103.65491 8951 ft 260 kts 357°
2026-04-15 08:43 36.38807 103.65377 8632 ft 267 kts 357°
2026-04-15 08:43 36.40662 103.65260 8280 ft 268 kts 357°
2026-04-15 08:43 36.42519 103.65143 7914 ft 257 kts 358°
2026-04-15 08:44 36.44208 103.65036 7618 ft 229 kts 356°
2026-04-15 08:44 36.45707 103.64941 7345 ft 202 kts 356°
2026-04-15 08:44 36.47018 103.64858 7069 ft 177 kts 356°
2026-04-15 08:44 36.48194 103.64784 6819 ft 164 kts 356°
2026-04-15 08:45 36.49310 103.64713 6612 ft 158 kts 356°
2026-04-15 08:45 36.50400 103.64645 6427 ft 159 kts 356°
2026-04-15 08:45 36.51445 103.64583 6458 ft 144 kts 357°
2026-04-15 08:45 36.52412 103.64520 6416 ft 144 kts 356°
2026-04-15 08:46 36.53559 103.64442 6730 ft 186 kts 356°
2026-04-15 08:46 36.54960 103.64356 7172 ft 213 kts 357°
2026-04-15 08:46 36.56456 103.64265 7707 ft 216 kts 357°
2026-04-15 08:46 36.57950 103.64234 8290 ft 217 kts
2026-04-15 08:47 36.59408 103.64725 8821 ft 219 kts 22°
2026-04-15 08:47 36.60738 103.65663 9364 ft 220 kts 32°
2026-04-15 08:47 36.62023 103.66727 9769 ft 223 kts 34°
2026-04-15 08:47 36.63342 103.67794 9865 ft 232 kts 33°
2026-04-15 08:48 36.64770 103.68893 9896 ft 246 kts 32°
2026-04-15 08:48 36.66241 103.70012 9896 ft 250 kts 32°
2026-04-15 08:48 36.67662 103.71232 9886 ft 250 kts 41°
2026-04-15 08:48 36.68592 103.73054 9857 ft 247 kts 69°
2026-04-15 08:49 36.68912 103.75148 9889 ft 247 kts 83°
2026-04-15 08:49 36.68982 103.77284 9922 ft 246 kts 92°
2026-04-15 08:49 36.68700 103.79384 9920 ft 246 kts 105°
2026-04-15 08:49 36.68025 103.81339 9897 ft 247 kts 119°
2026-04-15 08:50 36.67019 103.83069 9893 ft 246 kts 129°
2026-04-15 08:50 36.65883 103.84634 9891 ft 249 kts 134°
2026-04-15 08:50 36.64598 103.86210 9868 ft 268 kts 136°
2026-04-15 08:50 36.63250 103.87848 9865 ft 272 kts 135°
2026-04-15 08:51 36.61918 103.89487 9878 ft 267 kts 135°
2026-04-15 08:51 36.60609 103.91121 9882 ft 267 kts 135°
2026-04-15 08:51 36.59300 103.92770 9892 ft 267 kts 135°
2026-04-15 08:51 36.57995 103.94423 9888 ft 268 kts 134°
2026-04-15 08:52 36.56682 103.96070 9891 ft 268 kts 136°
2026-04-15 08:52 36.55141 103.97354 9885 ft 268 kts 154°
2026-04-15 08:52 36.53349 103.97989 9891 ft 269 kts 168°
2026-04-15 08:52 36.51514 103.98267 9887 ft 263 kts 174°
2026-04-15 08:53 36.49696 103.98388 9887 ft 260 kts 177°
2026-04-15 08:53 36.47903 103.98439 9890 ft 257 kts 178°
2026-04-15 08:53 36.46117 103.98494 9888 ft 256 kts 178°
2026-04-15 08:53 36.44337 103.98565 9884 ft 256 kts 177°
2026-04-15 08:54 36.42574 103.98649 9887 ft 257 kts 177°
2026-04-15 08:54 36.40785 103.98741 9888 ft 257 kts 177°
2026-04-15 08:54 36.38999 103.98838 9888 ft 257 kts 177°
2026-04-15 08:54 36.37205 103.98937 9888 ft 258 kts 177°
2026-04-15 08:55 36.35415 103.99038 9887 ft 257 kts 176°
2026-04-15 08:55 36.33633 103.99138 9891 ft 256 kts 176°
2026-04-15 08:55 36.31853 103.99239 9888 ft 256 kts 176°
2026-04-15 08:55 36.30068 103.99340 9884 ft 256 kts 176°
2026-04-15 08:56 36.28291 103.99440 9886 ft 256 kts 177°
2026-04-15 08:56 36.26523 103.99227 9866 ft 257 kts 194°
2026-04-15 08:56 36.25003 103.98133 9879 ft 259 kts 219°
2026-04-15 08:56 36.24008 103.96289 9885 ft 261 kts 246°
2026-04-15 08:57 36.23688 103.94080 9898 ft 262 kts 265°
2026-04-15 08:57 36.23692 103.91818 9898 ft 263 kts 270°
2026-04-15 08:57 36.23740 103.89544 9898 ft 264 kts 270°
2026-04-15 08:57 36.23737 103.87275 9901 ft 264 kts 268°
2026-04-15 08:58 36.23683 103.84976 9901 ft 273 kts 267°
2026-04-15 08:58 36.23507 103.79969 9938 ft 287 kts 266°
2026-04-15 08:58 36.23405 103.77639 9917 ft 255 kts 266°
2026-04-15 08:59 36.23306 103.75545 9921 ft 236 kts 265°
2026-04-15 08:59 36.23208 103.73482 9945 ft 244 kts 265°
2026-04-15 08:59 36.23106 103.71363 9940 ft 248 kts 265°
2026-04-15 08:59 36.23076 103.69213 9916 ft 252 kts 273°
2026-04-15 09:00 36.23636 103.67166 9553 ft 256 kts 299°
2026-04-15 09:00 36.24890 103.65727 9202 ft 240 kts 330°
2026-04-15 09:00 36.26478 103.65321 9130 ft 233 kts 359°
2026-04-15 09:00 36.28083 103.65617 9095 ft 235 kts 11°
2026-04-15 09:01 36.29716 103.65867 9026 ft 236 kts
2026-04-15 09:01 36.31346 103.65879 8996 ft 233 kts 359°
2026-04-15 09:01 36.32978 103.65773 9001 ft 238 kts 357°
2026-04-15 09:01 36.34661 103.65648 8992 ft 243 kts 357°
2026-04-15 09:02 36.36338 103.65536 8988 ft 240 kts 357°
2026-04-15 09:02 36.38006 103.65428 8822 ft 240 kts 357°
2026-04-15 09:02 36.39666 103.65323 8472 ft 232 kts 357°
2026-04-15 09:02 36.41170 103.65228 8180 ft 206 kts 357°
2026-04-15 09:03 36.42525 103.65142 7916 ft 185 kts 358°
2026-04-15 09:03 36.43758 103.65065 7662 ft 168 kts 356°
2026-04-15 09:03 36.44903 103.64992 7454 ft 162 kts 356°
2026-04-15 09:03 36.46021 103.64921 7248 ft 161 kts 356°
2026-04-15 09:04 36.47129 103.64851 7042 ft 162 kts 357°
2026-04-15 09:04 36.48267 103.64779 6823 ft 162 kts 356°
2026-04-15 09:04 36.49374 103.64709 6614 ft 161 kts 356°
2026-04-15 09:04 36.50491 103.64639 6423 ft 160 kts 356°
2026-04-15 09:05 36.51493 103.64576 6407 ft 120 kts 356°
2026-04-15 09:05 36.52151 103.64533 6407 ft 68 kts 357°
2026-04-15 09:05 36.52444 103.64481 6407 ft 26 kts 329°
2026-04-15 09:05 36.52524 103.64421 6407 ft 10 kts 329°
2026-04-15 09:06 36.52584 103.64379 6407 ft 10 kts 332°
2026-04-15 09:06 36.52643 103.64342 6407 ft 9 kts 333°
2026-04-15 09:06 36.52702 103.64308 6407 ft 10 kts 343°
2026-04-15 09:06 36.52801 103.64293 6407 ft 18 kts 356°
2026-04-15 09:07 36.52952 103.64282 6407 ft 23 kts 356°
2026-04-15 09:07 36.53102 103.64270 6407 ft 25 kts 356°
2026-04-15 09:07 36.53235 103.64260 6407 ft 21 kts 357°
2026-04-15 09:07 36.53385 103.64253 6407 ft 18 kts 359°
2026-04-15 09:08 36.53526 103.64246 6407 ft 24 kts 357°
2026-04-15 09:08 36.53597 103.64185 6407 ft 9 kts 262°
2026-04-15 09:08 36.53539 103.64152 6407 ft 14 kts 178°
2026-04-15 09:08 36.53410 103.64159 6407 ft 23 kts 178°
2026-04-15 09:09 36.53236 103.64162 6407 ft 13 kts 197°
2026-04-15 09:09 36.53206 103.64071 6407 ft 14 kts 275°
2026-04-15 09:09 36.53212 103.63920 6407 ft 20 kts 268°
2026-04-15 09:09 36.53206 103.63765 6407 ft 19 kts 267°
2026-04-15 09:10 36.53200 103.63582 6407 ft 23 kts 266°
2026-04-15 09:10 36.53194 103.63446 6407 ft 23 kts 267°
2026-04-15 09:10 36.53173 103.63268 6407 ft 10 kts 214°
2026-04-15 09:10 36.53073 103.63260 6407 ft 19 kts 178°
2026-04-15 09:11 36.52969 103.63238 6407 ft 12 kts 240°
2026-04-15 09:11 36.52949 103.63103 6407 ft 17 kts 266°
2026-04-15 09:11 36.52937 103.62980 6407 ft 9 kts 239°
2026-04-15 09:11 36.52873 103.62974 6407 ft 11 kts 154°
2026-04-15 09:12 36.52849 103.62991 6407 ft 1 kts 148°
2026-04-15 09:12 36.52851 103.62989 6407 ft 0 kts 149°